Location: St. Andrews
(45.0670°N, 67.0330°W)
Time: 21:10:43
(UTC-03:00)

Amateur Radio Satellites - All Passes

Search period start: 22 March 2017 20:40
Search period end: 23 March 2017 20:40
Location: St. Andrews, 45.0670°N, 67.0330°W

Satellite Date Start Highest point End Downlink Frequencies (MHz)
Time Altitude Azimuth
PCSat 22 Mar 20:45:10 20:50:38 76° 241° (WSW) 20:56:02 145.827
STRAND 1 22 Mar 20:59:55 21:05:04 78° 103° (ESE) 21:10:10 437.568
M-CUBED/EXP-1 PRIME 22 Mar 21:01:06 21:05:01 29° 298° (WNW) 21:09:00 437.505
HO-68 22 Mar 21:03:56 21:10:32 39° 263° (W) 21:17:11 435.675
ZACube-1 22 Mar 21:05:38 21:10:08 60° 73° (ENE) 21:14:36 437.345
Oscar 11 22 Mar 21:06:59 21:11:08 47° 72° (ENE) 21:15:18 .
AO-85 22 Mar 21:36:15 21:36:39 10° 109° (ESE) 21:37:03 145.980
AO-73 22 Mar 21:36:43 21:41:16 73° 258° (WSW) 21:45:48 145.935
YUBILEINY 22 Mar 21:41:00 21:48:25 33° 277° (W) 21:55:49 435.215
AAUSAT CUBESAT 2 22 Mar 21:43:55 21:47:25 27° 265° (W) 21:50:56 437.432
SEEDS 22 Mar 21:47:45 21:49:52 14° 270° (W) 21:51:57 437.485
UWE-3 22 Mar 21:51:20 21:55:27 30° 265° (W) 21:59:34 435.000/436.395/437.385
DELFI C3 22 Mar 22:07:34 22:11:27 66° 75° (ENE) 22:15:21 145.870
CUBEBUG 2 22 Mar 22:18:17 22:20:06 12° 273° (W) 22:21:56 437.445
UNISAT 6 22 Mar 22:25:03 22:27:09 13° 88° (E) 22:29:14 437.425
PCSat 22 Mar 22:31:47 22:33:04 11° 259° (W) 22:34:20 145.827
ISS 22 Mar 22:36:42 22:38:58 17° 135° (SE) 22:41:13 437.550
STRAND 1 22 Mar 22:40:33 22:43:36 16° 302° (WNW) 22:46:39 437.568
ZACube-1 22 Mar 22:44:04 22:46:46 15° 270° (W) 22:49:27 437.345
Oscar 11 22 Mar 22:44:39 22:47:32 17° 269° (W) 22:50:26 .
ESTCUBE 1 22 Mar 22:46:30 22:49:10 16° 61° (ENE) 22:51:51 437.505/2401.250
RS-15 22 Mar 22:52:46 23:05:12 78° 52° (NE) 23:17:05 29.354- 29.394
Tancredo 1 22 Mar 22:55:34 22:58:19 27° 139° (SE) 23:01:05 437.200
PRISM 22 Mar 22:56:22 23:00:27 53° 101° (E) 23:04:31 437.425
AO-85 22 Mar 23:12:03 23:16:28 89° 124° (SE) 23:20:36 145.980
BEESAT 3 22 Mar 23:20:59 23:21:53 11° 108° (ESE) 23:22:47 437.485
LO-87 22 Mar 23:28:21 23:31:55 68° 75° (ENE) 23:35:31 145.935 - 145.965
DELFI C3 22 Mar 23:45:59 23:46:41 10° 272° (W) 23:47:23 145.870
FO-29 22 Mar 23:47:35 23:53:44 51° 98° (E) 23:59:11 435.910
TIGRISAT 22 Mar 23:51:02 23:55:33 87° 286° (WNW) 23:59:55 435.000
SPROUT 22 Mar 23:58:27 00:01:46 22° 65° (ENE) 00:05:06 437.525
UNISAT 6 22 Mar 23:59:53 00:04:21 66° 287° (WNW) 00:08:41 437.425
DX 1 23 Mar 00:09:38 00:12:15 16° 61° (ENE) 00:14:52 434.975-435.025
ISS 23 Mar 00:11:50 00:15:06 73° 330° (NNW) 00:18:24 437.550
POLYITAN 1 23 Mar 00:15:39 00:18:20 16° 91° (E) 00:20:58 437.675
VELOX 1 23 Mar 00:16:25 00:20:29 39° 69° (ENE) 00:24:37 145.980
SO-50 23 Mar 00:19:43 00:23:43 30° 43° (NE) 00:27:41 436.795
QB50P2 23 Mar 00:19:44 00:22:48 19° 92° (E) 00:25:51 145.880/145.840
ESTCUBE 1 23 Mar 00:21:04 00:25:29 62° 259° (W) 00:29:57 437.505/2401.250
AIST 2D 23 Mar 00:22:26 00:25:33 29° 96° (E) 00:28:38 435.315
Tancredo 1 23 Mar 00:31:14 00:34:20 49° 337° (NNW) 00:37:29 437.200
PRISM 23 Mar 00:32:46 00:35:20 16° 298° (WNW) 00:37:53 437.425
DUCHIFAT 1 23 Mar 00:38:27 00:41:51 23° 94° (E) 00:45:13 145.980
50 SAT 23 Mar 00:47:02 00:50:21 47° 72° (ENE) 00:53:42 437.505
AO-85 23 Mar 00:54:51 00:57:23 15° 323° (NW) 00:59:52 145.980
BEESAT 3 23 Mar 00:54:55 00:58:51 78° 306° (NW) 01:02:51 437.485
UKube-1 23 Mar 00:57:05 01:00:56 32° 67° (ENE) 01:04:47 .
BEESAT 2 23 Mar 01:00:54 01:04:43 49° 120° (ESE) 01:08:36 435.950
RS-15 23 Mar 01:06:15 01:16:34 34° 256° (WSW) 01:26:32 29.354- 29.394
BUGSAT 1 23 Mar 01:12:34 01:15:34 19° 92° (E) 01:18:32 437.445
NANOSAT C BR1 23 Mar 01:21:34 01:25:49 75° 102° (ESE) 01:30:01 145.865
EO-79 23 Mar 01:23:20 01:27:38 85° 105° (ESE) 01:31:51 145.935-145.965
TIGRISAT 23 Mar 01:30:22 01:31:27 11° 303° (WNW) 01:32:32 435.000
FO-29 23 Mar 01:33:10 01:38:26 28° 300° (WNW) 01:43:13 435.910
SPROUT 23 Mar 01:33:26 01:37:27 38° 263° (W) 01:41:30 437.525
DX 1 23 Mar 01:43:41 01:47:58 59° 259° (WSW) 01:52:18 434.975-435.025
ISS 23 Mar 01:49:05 01:51:58 27° 352° (N) 01:54:51 437.550
POLYITAN 1 23 Mar 01:50:17 01:54:24 49° 288° (WNW) 01:58:28 437.675
VELOX 1 23 Mar 01:53:40 01:57:05 22° 267° (W) 02:00:31 145.980
QB50P2 23 Mar 01:54:46 01:58:47 41° 290° (WNW) 02:02:45 145.880/145.840
AIST 2D 23 Mar 01:56:07 01:58:35 18° 293° (WNW) 02:01:02 435.315
Oscar 19 23 Mar 01:57:18 02:01:00 19° 92° (E) 02:04:41 437.125/150
SO-50 23 Mar 02:00:04 02:04:16 40° 242° (WSW) 02:08:27 436.795
Tancredo 1 23 Mar 02:08:18 02:11:00 24° 357° (N) 02:13:42 437.200
DUCHIFAT 1 23 Mar 02:13:45 02:17:35 34° 291° (WNW) 02:21:23 145.980
50 SAT 23 Mar 02:22:42 02:23:42 11° 270° (W) 02:24:43 437.505
UKube-1 23 Mar 02:33:23 02:36:58 25° 265° (W) 02:40:35 .
BEESAT 3 23 Mar 02:35:05 02:37:08 13° 326° (NW) 02:39:11 437.485
BEESAT 23 Mar 02:36:30 02:40:39 30° 66° (ENE) 02:44:50 436.000
BEESAT 2 23 Mar 02:39:36 02:42:45 22° 319° (NW) 02:45:55 435.950
BUGSAT 1 23 Mar 02:47:08 02:51:07 41° 290° (WNW) 02:55:02 437.445
ITUPSAT 1 23 Mar 02:49:30 02:53:56 39° 68° (ENE) 02:58:23 437.325
NANOSAT C BR1 23 Mar 02:59:11 03:00:56 12° 300° (WNW) 03:02:40 145.865
EO-79 23 Mar 03:01:30 03:02:43 11° 301° (WNW) 03:03:56 145.935-145.965
O/OREOS (USA 219) 23 Mar 03:10:38 03:14:17 22° 53° (NE) 03:17:54 437.305
Gurwin Techsat 1B 23 Mar 03:16:04 03:21:20 57° 101° (E) 03:26:33 435.225
ISS 23 Mar 03:26:07 03:29:04 29° 12° (NNE) 03:32:02 437.550
MOZHAYETS 4 23 Mar 03:30:35 03:34:52 39° 70° (ENE) 03:39:09
ITAMSAT 1 23 Mar 03:35:31 03:38:32 15° 89° (E) 03:41:30 435.822/435.867
Oscar 19 23 Mar 03:35:37 03:40:40 57° 289° (WNW) 03:45:44 437.125/150
KKS-1 23 Mar 03:44:30 03:46:56 15° 60° (ENE) 03:49:22 437.445
Tancredo 1 23 Mar 03:44:45 03:47:45 34° 17° (NNE) 03:50:44 437.200
CUBESAT XI-V 23 Mar 04:12:41 04:15:58 20° 63° (ENE) 04:19:15 437.345
AO-7 23 Mar 04:13:37 04:20:51 32° 95° (E) 04:28:02 .
BEESAT 23 Mar 04:14:03 04:18:21 33° 263° (W) 04:22:41 436.000
ITUPSAT 1 23 Mar 04:27:53 04:31:52 26° 265° (W) 04:35:52 437.325
STARS 23 Mar 04:31:34 04:34:42 19° 63° (ENE) 04:37:52 437.465
O/OREOS (USA 219) 23 Mar 04:49:30 04:53:57 47° 252° (WSW) 04:58:21 437.305
Gurwin Techsat 1B 23 Mar 04:56:51 05:00:52 22° 299° (WNW) 05:04:52 435.225
ISS 23 Mar 05:02:31 05:05:49 83° 213° (SSW) 05:09:08 437.550
MOZHAYETS 4 23 Mar 05:08:28 05:12:09 23° 267° (W) 05:15:50
ITAMSAT 1 23 Mar 05:13:20 05:18:33 73° 287° (WNW) 05:23:43 435.822/435.867
KKS-1 23 Mar 05:18:29 05:22:55 70° 257° (WSW) 05:27:25 437.445
Tancredo 1 23 Mar 05:20:52 05:24:01 51° 215° (SW) 05:27:09 437.200
CUBESAT XI-V 23 Mar 05:48:32 05:52:59 50° 261° (W) 05:57:28 437.345
AO-85 23 Mar 06:01:49 06:04:36 18° 39° (NE) 06:07:24 145.980
AO-7 23 Mar 06:05:56 06:14:05 63° 295° (WNW) 06:22:12 .
STARS 23 Mar 06:06:26 06:10:42 48° 260° (W) 06:15:02 437.465
M-CUBED/EXP-1 PRIME 23 Mar 06:14:29 06:18:01 53° 67° (ENE) 06:21:51 437.505
DOVE 4 23 Mar 06:22:52 06:26:33 19° 89° (E) 06:30:12 437.250
CUTE-I 23 Mar 06:34:57 06:38:01 15° 89° (E) 06:41:03 437.470
ISS 23 Mar 06:40:20 06:41:50 12° 228° (SW) 06:43:18 437.550
STRAND 1 23 Mar 06:40:29 06:44:09 20° 61° (ENE) 06:47:48 437.568
LilacSat-2 23 Mar 06:41:46 06:44:00 15° 91° (E) 06:46:14 437.200
XW-2F 23 Mar 06:47:39 06:50:02 16° 92° (E) 06:52:25 145.980 - 146.000
ITAMSAT 1 23 Mar 06:55:19 06:57:06 12° 306° (NW) 06:58:53 435.822/435.867
YUBILEINY 23 Mar 06:57:15 07:00:10 12° 71° (ENE) 07:03:05 435.215
XW-2D 23 Mar 07:10:13 07:13:36 31° 97° (E) 07:16:56 145.860 - 145.880
XW-2B 23 Mar 07:15:58 07:19:27 35° 97° (E) 07:22:53 145.730 - 145.750
NUDT-PHONESAT 23 Mar 07:24:19 07:27:44 35° 97° (E) 07:31:07 437.300
XW-2C 23 Mar 07:25:51 07:29:29 46° 99° (E) 07:33:07 145.795 - 145.815
KAITUO 1B 23 Mar 07:26:24 07:29:52 37° 98° (E) 07:33:19 145.475/437.950
BEESAT 3 23 Mar 07:33:10 07:35:55 17° 38° (NE) 07:38:40 437.485
BEESAT 2 23 Mar 07:40:38 07:42:01 11° 31° (NNE) 07:43:23 435.950
AO-85 23 Mar 07:41:27 07:45:20 59° 238° (WSW) 07:49:17 145.980
M-CUBED/EXP-1 PRIME 23 Mar 07:51:26 07:52:56 12° 266° (W) 07:54:28 437.505
CUTE 1.7 + AOD 2 23 Mar 07:52:21 07:54:06 12° 89° (E) 07:55:51 437.475
DOVE 4 23 Mar 07:59:23 08:04:38 64° 287° (WNW) 08:09:51 437.250
AO-7 23 Mar 08:00:26 08:05:17 17° 317° (NW) 08:10:08 .
CUTE-I 23 Mar 08:13:17 08:18:40 76° 286° (WNW) 08:23:59 437.470
LilacSat-2 23 Mar 08:14:56 08:18:30 41° 288° (WNW) 08:22:03 437.200
STRAND 1 23 Mar 08:17:46 08:22:52 62° 259° (WSW) 08:27:59 437.568
XW-2F 23 Mar 08:20:52 08:24:21 37° 289° (WNW) 08:27:49 145.980 - 146.000
CUBEBUG 2 23 Mar 08:28:41 08:31:14 15° 89° (E) 08:33:44 437.445
HO-68 23 Mar 08:28:44 08:35:21 38° 97° (E) 08:41:55 435.675
XW-2A 23 Mar 08:39:06 08:42:25 48° 100° (E) 08:45:41 145.665 - 145.685
XW-2D 23 Mar 08:44:48 08:47:37 20° 293° (WNW) 08:50:25 145.860 - 145.880
YUBILEINY 23 Mar 08:46:29 08:55:04 63° 92° (E) 09:03:39 435.215
XW-2B 23 Mar 08:50:47 08:53:25 18° 294° (WNW) 08:56:02 145.730 - 145.750
NO-84 23 Mar 08:54:55 08:57:31 32° 135° (SE) 09:00:08 435.350 FM
NUDT-PHONESAT 23 Mar 08:58:55 09:01:25 18° 295° (WNW) 09:03:55 437.300
KAITUO 1B 23 Mar 09:01:12 09:03:37 17° 295° (WNW) 09:06:01 145.475/437.950
XW-2C 23 Mar 09:01:14 09:03:19 14° 296° (WNW) 09:05:24 145.795 - 145.815
BEESAT 3 23 Mar 09:09:57 09:13:58 72° 238° (WSW) 09:17:57 437.485
BEESAT 2 23 Mar 09:16:38 09:20:39 57° 51° (NE) 09:24:39 435.950
TIGRISAT 23 Mar 09:17:10 09:19:29 14° 60° (ENE) 09:21:48 435.000
AAUSAT CUBESAT 2 23 Mar 09:23:13 09:27:06 38° 97° (E) 09:30:59 437.432
AO-73 23 Mar 09:23:46 09:26:42 18° 91° (E) 09:29:36 145.935
UNISAT 6 23 Mar 09:25:16 09:28:19 17° 62° (ENE) 09:31:21 437.425
CUTE 1.7 + AOD 2 23 Mar 09:26:11 09:30:22 64° 286° (WNW) 09:34:31 437.475
SEEDS 23 Mar 09:26:49 09:31:01 86° 104° (ESE) 09:35:13 437.485
UWE-3 23 Mar 09:38:30 09:42:46 48° 99° (E) 09:46:52 435.000/436.395/437.385
DOVE 4 23 Mar 09:40:17 09:41:17 10° 305° (NW) 09:42:16 437.250
PRISM 23 Mar 09:47:19 09:51:13 48° 71° (ENE) 09:55:10 437.425
CUTE-I 23 Mar 09:55:35 09:57:48 13° 305° (NW) 10:00:01 437.470
FO-29 23 Mar 10:00:01 10:06:55 36° 63° (ENE) 10:13:28 435.910
CUBEBUG 2 23 Mar 10:03:51 10:08:17 57° 287° (WNW) 10:12:32 437.445
XW-2A 23 Mar 10:13:31 10:14:46 12° 297° (WNW) 10:16:01 145.665 - 145.685
HO-68 23 Mar 10:16:24 10:23:09 47° 296° (WNW) 10:29:54 435.675
Oscar 11 23 Mar 10:27:53 10:32:12 75° 102° (ESE) 10:36:30 .
ZACube-1 23 Mar 10:28:11 10:32:30 84° 282° (WNW) 10:36:41 437.345
NO-84 23 Mar 10:32:32 10:35:03 27° 334° (NNW) 10:37:40 435.350 FM
YUBILEINY 23 Mar 10:44:53 10:52:28 32° 294° (WNW) 11:00:04 435.215
TIGRISAT 23 Mar 10:50:49 10:55:32 81° 258° (WSW) 11:00:15 435.000
BEESAT 2 23 Mar 10:55:32 10:58:00 16° 249° (WSW) 11:00:27 435.950
AO-73 23 Mar 10:59:08 11:03:11 43° 289° (WNW) 11:07:08 145.935
AAUSAT CUBESAT 2 23 Mar 10:59:15 11:02:20 21° 295° (WNW) 11:05:25 437.432
AIST 2D 23 Mar 10:59:30 11:01:47 16° 66° (ENE) 11:04:03 435.315
UNISAT 6 23 Mar 10:59:53 11:04:32 61° 259° (W) 11:09:12 437.425
SEEDS 23 Mar 11:05:14 11:06:03 10° 301° (WNW) 11:06:51 437.485
POLYITAN 1 23 Mar 11:10:13 11:13:01 17° 63° (ENE) 11:15:49 437.675
QB50P2 23 Mar 11:14:16 11:17:22 20° 64° (ENE) 11:20:29 145.880/145.840
UWE-3 23 Mar 11:15:50 11:18:50 18° 297° (WNW) 11:21:47 435.000/436.395/437.385
DELFI C3 23 Mar 11:17:10 11:21:10 84° 104° (ESE) 11:25:08 145.870
PRISM 23 Mar 11:24:21 11:26:47 15° 268° (W) 11:29:13 437.425
PCSat 23 Mar 11:28:23 11:33:45 68° 118° (ESE) 11:39:10 145.827
DUCHIFAT 1 23 Mar 11:32:06 11:35:27 23° 66° (ENE) 11:38:50 145.980
FO-29 23 Mar 11:43:53 11:51:36 57° 260° (W) 11:58:59 435.910
BUGSAT 1 23 Mar 12:04:14 12:07:10 18° 63° (ENE) 12:10:07 437.445
Oscar 11 23 Mar 12:05:56 12:07:45 12° 300° (WNW) 12:09:33 .
HO-68 23 Mar 12:07:44 12:09:09 11° 317° (NW) 12:10:34 435.675
ESTCUBE 1 23 Mar 12:11:53 12:15:30 23° 94° (E) 12:19:07 437.505/2401.250
NO-84 23 Mar 12:11:53 12:13:25 13° 356° (N) 12:14:58 435.350 FM
NANOSAT C BR1 23 Mar 12:15:01 12:19:15 70° 74° (ENE) 12:23:32 145.865
EO-79 23 Mar 12:17:07 12:21:23 80° 75° (ENE) 12:25:41 145.935-145.965
LO-87 23 Mar 12:26:43 12:30:22 65° 101° (E) 12:33:59 145.935 - 145.965
AIST 2D 23 Mar 12:31:28 12:34:44 35° 263° (W) 12:38:02 435.315
POLYITAN 1 23 Mar 12:44:12 12:48:24 52° 260° (W) 12:52:37 437.675
QB50P2 23 Mar 12:48:47 12:52:52 43° 261° (W) 12:56:59 145.880/145.840
Gurwin Techsat 1B 23 Mar 13:01:47 13:05:08 17° 58° (ENE) 13:08:32 435.225
DUCHIFAT 1 23 Mar 13:07:01 13:10:56 36° 263° (W) 13:14:53 145.980
PCSat 23 Mar 13:13:15 13:17:39 24° 318° (NW) 13:22:04 145.827
Oscar 19 23 Mar 13:15:47 13:20:23 35° 66° (ENE) 13:25:00 437.125/150
SPROUT 23 Mar 13:17:02 13:20:50 30° 96° (E) 13:24:36 437.525
RS-15 23 Mar 13:18:27 13:29:10 41° 107° (ESE) 13:40:09 29.354- 29.394
AO-7 23 Mar 13:27:24 13:31:30 15° 40° (NE) 13:35:35 .
DX 1 23 Mar 13:30:25 13:33:41 20° 93° (E) 13:36:56 434.975-435.025
FO-29 23 Mar 13:36:33 13:37:57 10° 278° (W) 13:39:21 435.910
BUGSAT 1 23 Mar 13:38:07 13:42:11 46° 261° (W) 13:46:18 437.445
VELOX 1 23 Mar 13:40:14 13:44:40 60° 101° (E) 13:49:04 145.980
50 SAT 23 Mar 13:42:15 13:45:33 38° 99° (E) 13:48:52 437.505
ESTCUBE 1 23 Mar 13:48:15 13:52:24 38° 291° (WNW) 13:56:34 437.505/2401.250
NO-84 23 Mar 13:49:38 13:51:55 19° 18° (NNE) 13:54:19 435.350 FM
NANOSAT C BR1 23 Mar 13:53:56 13:55:27 12° 271° (W) 13:56:58 145.865
EO-79 23 Mar 13:57:21 13:57:42 10° 272° (W) 13:58:03 145.935-145.965
LO-87 23 Mar 14:02:27 14:03:18 11° 298° (WNW) 14:04:08 145.935 - 145.965
UKube-1 23 Mar 14:17:26 14:21:35 43° 99° (E) 14:25:43 .
Gurwin Techsat 1B 23 Mar 14:39:09 14:44:28 76° 257° (WSW) 14:49:49 435.225
SPROUT 23 Mar 14:53:01 14:56:40 27° 293° (WNW) 15:00:18 437.525
ITAMSAT 1 23 Mar 14:54:45 14:59:17 30° 64° (ENE) 15:03:48 435.822/435.867
Oscar 19 23 Mar 14:55:09 14:59:42 32° 264° (W) 15:04:17 437.125/150
DX 1 23 Mar 15:05:54 15:10:03 42° 290° (WNW) 15:14:11 434.975-435.025
AO-7 23 Mar 15:14:27 15:22:26 54° 63° (ENE) 15:30:26 .
50 SAT 23 Mar 15:16:17 15:18:19 15° 295° (WNW) 15:20:21 437.505
VELOX 1 23 Mar 15:17:53 15:20:39 16° 299° (WNW) 15:23:25 145.980
NO-84 23 Mar 15:26:38 15:29:51 78° 35° (NE) 15:33:21 435.350 FM
RS-15 23 Mar 15:28:53 15:40:57 71° 311° (NW) 15:53:24 29.354- 29.394
UKube-1 23 Mar 15:54:08 15:57:20 20° 296° (WNW) 16:00:31 .
BEESAT 23 Mar 16:11:26 16:16:06 52° 100° (E) 16:20:43 436.000
SO-50 23 Mar 16:15:38 16:19:57 39° 118° (ESE) 16:24:15 436.795
ITUPSAT 1 23 Mar 16:25:09 16:29:56 70° 103° (ESE) 16:34:39 437.325
ITAMSAT 1 23 Mar 16:33:43 16:38:36 39° 262° (W) 16:43:30 435.822/435.867
MOZHAYETS 4 23 Mar 17:00:07 17:04:41 71° 102° (ESE) 17:09:13
NO-84 23 Mar 17:05:19 17:07:07 14° 231° (SW) 17:08:59 435.350 FM
AO-7 23 Mar 17:07:48 17:15:25 39° 262° (W) 17:23:06 .
KKS-1 23 Mar 17:08:09 17:11:24 19° 93° (E) 17:14:38 437.445
O/OREOS (USA 219) 23 Mar 17:26:23 17:29:00 15° 99° (E) 17:31:38 437.305
LilacSat-2 23 Mar 17:26:51 17:28:07 11° 62° (ENE) 17:29:22 437.200
DOVE 4 23 Mar 17:30:23 17:33:51 21° 62° (ENE) 17:37:28 437.250
XW-2F 23 Mar 17:31:44 17:33:09 12° 62° (ENE) 17:34:34 145.980 - 146.000
CUBESAT XI-V 23 Mar 17:42:52 17:47:07 34° 96° (E) 17:51:20 437.345
RS-15 23 Mar 17:45:22 17:56:11 34° 341° (NNW) 18:07:06 29.354- 29.394
BEESAT 23 Mar 17:50:03 17:53:30 20° 298° (WNW) 17:56:56 436.000
XW-2D 23 Mar 17:53:40 17:56:36 21° 67° (ENE) 17:59:32 145.860 - 145.880
STARS 23 Mar 17:53:58 17:57:40 25° 95° (E) 18:01:20 437.465
SO-50 23 Mar 17:56:21 18:00:30 31° 316° (NW) 18:04:37 436.795
CUTE-I 23 Mar 17:58:01 18:02:41 31° 65° (ENE) 18:07:23 437.470
XW-2B 23 Mar 17:59:20 18:02:25 24° 68° (ENE) 18:05:30 145.730 - 145.750
ITUPSAT 1 23 Mar 18:04:21 18:07:12 16° 300° (WNW) 18:10:02 437.325
NUDT-PHONESAT 23 Mar 18:05:51 18:08:50 23° 68° (ENE) 18:11:49 437.300
KAITUO 1B 23 Mar 18:08:32 18:11:37 24° 68° (ENE) 18:14:41 145.475/437.950
XW-2C 23 Mar 18:09:00 18:12:23 30° 70° (ENE) 18:15:45 145.795 - 145.815
PCSat 23 Mar 18:31:45 18:35:31 18° 37° (NE) 18:39:15 145.827
MOZHAYETS 4 23 Mar 18:38:49 18:41:17 15° 300° (WNW) 18:43:44
KKS-1 23 Mar 18:43:53 18:48:11 46° 289° (WNW) 18:52:27 437.445
CUTE 1.7 + AOD 2 23 Mar 18:47:25 18:49:12 12° 61° (ENE) 18:50:58 437.475
YUBILEINY 23 Mar 18:54:18 19:02:06 35° 68° (ENE) 19:09:49 435.215
LilacSat-2 23 Mar 18:58:03 19:01:52 66° 259° (WSW) 19:05:41 437.200
HO-68 23 Mar 18:59:38 19:05:59 36° 61° (ENE) 19:12:20 435.675
XW-2F 23 Mar 19:03:02 19:06:48 62° 259° (W) 19:10:35 145.980 - 146.000
O/OREOS (USA 219) 23 Mar 19:03:25 19:07:53 60° 297° (WNW) 19:12:25 437.305
DOVE 4 23 Mar 19:06:39 19:11:07 50° 262° (W) 19:15:54 437.250
XW-2A 23 Mar 19:12:37 19:15:24 23° 68° (ENE) 19:18:10 145.665 - 145.685
CUBESAT XI-V 23 Mar 19:20:27 19:24:22 28° 293° (WNW) 19:28:18 437.345
M-CUBED/EXP-1 PRIME 23 Mar 19:24:49 19:29:00 33° 102° (ESE) 19:33:12 437.505
XW-2D 23 Mar 19:27:15 19:30:39 30° 264° (W) 19:34:03 145.860 - 145.880
CUBEBUG 2 23 Mar 19:28:09 19:31:25 19° 63° (ENE) 19:34:41 437.445
STARS 23 Mar 19:30:02 19:34:03 34° 292° (WNW) 19:38:01 437.465
XW-2B 23 Mar 19:33:14 19:36:31 27° 264° (W) 19:39:49 145.730 - 145.750
CUTE-I 23 Mar 19:37:37 19:42:37 39° 263° (W) 19:47:39 437.470
NUDT-PHONESAT 23 Mar 19:39:24 19:42:39 27° 264° (W) 19:45:54 437.300
KAITUO 1B 23 Mar 19:42:24 19:45:34 25° 265° (W) 19:48:44 145.475/437.950
XW-2C 23 Mar 19:43:42 19:46:37 21° 266° (W) 19:49:34 145.795 - 145.815
ZACube-1 23 Mar 19:52:16 19:54:00 12° 59° (ENE) 19:55:43 437.345
RS-15 23 Mar 20:02:40 20:13:29 33° 16° (NNE) 20:24:05 29.354- 29.394
PCSat 23 Mar 20:14:17 20:19:46 82° 56° (NE) 20:25:12 145.827
AAUSAT CUBESAT 2 23 Mar 20:15:09 20:18:48 32° 69° (ENE) 20:22:29 437.432
SEEDS 23 Mar 20:19:57 20:24:06 74° 76° (ENE) 20:28:16 437.485
CUTE 1.7 + AOD 2 23 Mar 20:20:15 20:24:27 72° 258° (WSW) 20:28:41 437.475
AO-73 23 Mar 20:20:52 20:24:12 21° 65° (ENE) 20:27:31 145.935
STRAND 1 23 Mar 20:26:19 20:31:06 38° 97° (E) 20:35:50 437.568
